Regional Weather Roundup
Issued by NWS Midland/Odessa, TX

Skip options and go directly to product.
Home | Oldest Version | Previous Version | Current Version | All | Graphics & Text | Save Text | Print | Product List | Glossary On

Skip product version selection by date and time.   
949
ASUS44 KMAF 300710
RWRMAF
MIDLAND AREA WEATHER ROUNDUP
NATIONAL WEATHER SERVICE MIDLAND TX
200 AM CDT WED JUL 30 2014

...IN SOUTHWEST TEXAS AND SOUTHEAST NEW MEXICO...

CITY           SKY/WX    TMP DP  RH WIND       PRES   REMARKS
ALPINE         CLEAR     76  48  37 SW3       30.22S
ANDREWS        FAIR      74  64  72 SE6       30.08F
ARTESIA        MOCLDY    75  63  64 N6        30.08F
BIG SPRING     PTCLDY    79  65  61 SE15      30.07F
CARLSBAD       MOCLDY    83  49  30 S7        30.05S
DRYDEN           N/A     88  52  29 SE14G22   30.03S
FORT STOCKTON  CLEAR     81  52  36 SE18G26   30.06F
GUAD PASS      MOCLDY    74  50  42 NE16      30.22F
HOBBS          MOCLDY    72  63  73 E7        30.12F
MARFA          CLEAR     73  46  38 E5        30.22F
MIDLAND AIRPK  PTCLDY    80  64  57 SE9       30.07S
MIDLAND INTL   PTCLDY    79  61  53 SE10      30.05F
ODESSA           N/A     78  58  49 S7        30.06F
PECOS          PTCLDY    81  49  31 SE8       30.02S
PRESIDIO       FAIR      86  49  27 NE8       30.03S
SEMINOLE       MOCLDY    71  64  77 S5        30.10F
SNYDER         PTCLDY    73  67  82 SE9       30.07R
WINK           PTCLDY    84  50  30 S14       30.02F
$$
...OTHER STATIONS IN TEXAS...

CITY           SKY/WX    TMP DP  RH WIND       PRES   REMARKS
ABILENE        MOCLDY    73  64  73 S9        30.05F
AMARILLO       CLOUDY    68  61  78 SE12      30.12F
AUSTIN         PTCLDY    73  68  84 CALM      30.05S
BROWNSVILLE    CLEAR     77  75  93 SE6       30.03F
CORPUS CHRISTI PTCLDY    75  72  90 S6        30.03S
DALLAS FTW     MOCLDY    75  63  66 E3        30.04F
DEL RIO        CLEAR     85  60  42 SE12      29.99S
EL PASO        NOT AVBL
HOUSTON INT    PTCLDY    74  73  97 CALM      30.04F
LUBBOCK        MOCLDY    70  65  84 SE9       30.10F
SAN ANGELO     MOCLDY    78  67  68 SE8       30.05F
SAN ANTONIO    MOCLDY    78  64  61 SE10      30.06S
WACO           CLEAR     73  67  81 CALM      30.03F
WICHITA FALLS  NOT AVBL
$$
...OTHER LOCATIONS IN NEW MEXICO...

CITY           SKY/WX    TMP DP  RH WIND       PRES   REMARKS
ALAMAGORDO     PTCLDY    72  63  73 NE6       30.13F
ALBUQUERQUE    CLOUDY    69  61  75 SE8       30.21F
CANNON AFB     PTCLDY    68  64  88 S8        30.15F
CLOVIS         NOT AVBL
HOLLOMAN AFB   PTCLDY    73  66  78 S6        30.11F
ROSWELL        MOCLDY    73  67  81 NW5       30.10S
RUIDOSO        MOCLDY    63  57  82 W5        30.33F
SANTA FE       PTCLDY    61  57  87 NW3       30.27F
TRUTH OR CONSE PTCLDY    69  63  81 CALM      30.17F
TUCUMCARI      CLOUDY    71  65  81 CALM      30.12F
$$

USA.gov is the U.S. government's official web portal to all federal, state and local government web resources and services.